| time (UTC) | temp F | wind direction | speed MPH | gust MPH | rain 1hr in | rain 24hr in | rain mn in | humidity % | barometer mb |
| 20260510103555 | 50 | 188 | 2.0 | 5.0 | 0.00 | 0.19 | 0.00 | 95 | 1010.9 |
| 20260510103101 | 50 | 209 | 1.0 | 4.0 | 0.00 | 0.19 | 0.00 | 95 | 1010.9 |
| 20260510102555 | 50 | 0 | 1.0 | 3.0 | 0.00 | 0.19 | 0.00 | 94 | 1011.0 |
| 20260510102053 | 50 | 189 | 0.0 | 2.0 | 0.00 | 0.19 | 0.00 | 95 | 1010.8 |
| 20260510101603 | 50 | 0 | 0.0 | 1.0 | 0.00 | 0.19 | 0.00 | 95 | 1010.6 |
| 20260510101053 | 50 | 0 | 0.0 | 1.0 | 0.00 | 0.19 | 0.00 | 95 | 1010.4 |
| 20260510100554 | 50 | 0 | 0.0 | 2.0 | 0.00 | 0.19 | 0.00 | 95 | 1010.4 |
| 20260510100055 | 50 | 0 | 0.0 | 2.0 | 0.00 | 0.19 | 0.00 | 95 | 1010.4 |
| 20260510095554 | 50 | 94 | 0.0 | 2.0 | 0.00 | 0.19 | 0.00 | 95 | 1010.3 |
| 20260510095054 | 50 | 0 | 0.0 | 2.0 | 0.00 | 0.19 | 0.00 | 95 | 1010.3 |
| 20260510094553 | 50 | 94 | 1.0 | 3.0 | 0.00 | 0.19 | 0.00 | 94 | 1010.3 |
| 20260510094054 | 50 | 153 | 0.0 | 4.0 | 0.00 | 0.19 | 0.00 | 95 | 1010.2 |
| 20260510093554 | 50 | 153 | 2.0 | 8.0 | 0.00 | 0.19 | 0.00 | 94 | 1010.3 |
| 20260510093057 | 50 | 156 | 3.0 | 8.0 | 0.00 | 0.19 | 0.00 | 94 | 1010.3 |
| 20260510092555 | 50 | 134 | 1.0 | 3.0 | 0.00 | 0.19 | 0.00 | 94 | 1010.3 |
| 20260510092055 | 50 | 0 | 1.0 | 3.0 | 0.00 | 0.19 | 0.00 | 94 | 1010.3 |
| 20260510091557 | 50 | 134 | 1.0 | 3.0 | 0.00 | 0.19 | 0.00 | 94 | 1010.3 |
| 20260510091051 | 50 | 0 | 0.0 | 5.0 | 0.00 | 0.19 | 0.00 | 94 | 1010.3 |
| 20260510090555 | 50 | 134 | 0.0 | 7.0 | 0.00 | 0.19 | 0.00 | 94 | 1010.3 |
| 20260510090053 | 50 | 133 | 3.0 | 7.0 | 0.00 | 0.19 | 0.00 | 94 | 1010.2 |
| 20260510085551 | 50 | 125 | 2.0 | 7.0 | 0.00 | 0.19 | 0.00 | 94 | 1010.2 |
| 20260510085053 | 50 | 126 | 3.0 | 7.0 | 0.00 | 0.19 | 0.00 | 94 | 1010.2 |
| 20260510084555 | 50 | 144 | 3.0 | 7.0 | 0.00 | 0.19 | 0.00 | 94 | 1010.3 |
| 20260510084054 | 49 | 152 | 3.0 | 8.0 | 0.00 | 0.19 | 0.00 | 94 | 1010.3 |
| 20260510083553 | 49 | 116 | 2.0 | 8.0 | 0.00 | 0.19 | 0.00 | 94 | 1010.3 |
| 20260510083054 | 49 | 137 | 4.0 | 7.0 | 0.00 | 0.19 | 0.00 | 94 | 1010.3 |
| 20260510082553 | 49 | 131 | 4.0 | 7.0 | 0.00 | 0.19 | 0.00 | 94 | 1010.4 |
| 20260510082053 | 49 | 133 | 4.0 | 7.0 | 0.00 | 0.19 | 0.00 | 94 | 1010.5 |
| 20260510081600 | 49 | 133 | 3.0 | 7.0 | 0.00 | 0.19 | 0.00 | 94 | 1010.5 |
| 20260510081054 | 49 | 153 | 2.0 | 7.0 | 0.00 | 0.19 | 0.00 | 94 | 1010.5 |
| 20260510080554 | 49 | 121 | 1.0 | 3.0 | 0.00 | 0.19 | 0.00 | 94 | 1010.3 |
| 20260510080053 | 49 | 56 | 0.0 | 2.0 | 0.00 | 0.19 | 0.00 | 94 | 1010.4 |
| 20260510075554 | 49 | 0 | 0.0 | 1.0 | 0.00 | 0.19 | 0.00 | 94 | 1010.5 |
| 20260510075058 | 48 | 357 | 0.0 | 1.0 | 0.00 | 0.19 | 0.00 | 94 | 1010.7 |
| 20260510074553 | 48 | 357 | 0.0 | 2.0 | 0.00 | 0.19 | 0.00 | 94 | 1010.8 |
| 20260510074053 | 48 | 357 | 0.0 | 3.0 | 0.00 | 0.19 | 0.00 | 94 | 1010.7 |
| 20260510073554 | 48 | 358 | 1.0 | 3.0 | 0.00 | 0.19 | 0.00 | 94 | 1010.8 |
| 20260510073103 | 48 | 359 | 1.0 | 3.0 | 0.00 | 0.19 | 0.00 | 94 | 1010.8 |
| 20260510072554 | 48 | 316 | 1.0 | 3.0 | 0.00 | 0.19 | 0.00 | 94 | 1010.8 |
| 20260510072057 | 48 | 0 | 1.0 | 4.0 | 0.00 | 0.19 | 0.00 | 94 | 1010.8 |
| 20260510071557 | 49 | 318 | 1.0 | 9.0 | 0.00 | 0.19 | 0.00 | 93 | 1010.8 |
| 20260510071053 | 49 | 321 | 0.0 | 9.0 | 0.00 | 0.19 | 0.00 | 93 | 1010.9 |
| 20260510070550 | 49 | 266 | 4.0 | 9.0 | 0.00 | 0.19 | 0.00 | 94 | 1011.0 |
| 20260510070054 | 49 | 132 | 0.0 | 3.0 | 0.00 | 0.19 | 0.00 | 94 | 1010.3 |
| 20260510065554 | 49 | 132 | 0.0 | 4.0 | 0.00 | 0.19 | 0.00 | 94 | 1010.1 |
| 20260510065055 | 50 | 0 | 1.0 | 4.0 | 0.00 | 0.19 | 0.00 | 94 | 1010.0 |
| 20260510064554 | 50 | 133 | 2.0 | 4.0 | 0.00 | 0.19 | 0.00 | 94 | 1010.1 |
| 20260510064054 | 49 | 151 | 1.0 | 4.0 | 0.00 | 0.19 | 0.00 | 94 | 1010.2 |
| 20260510063555 | 49 | 127 | 0.0 | 3.0 | 0.00 | 0.19 | 0.00 | 94 | 1010.1 |
| 20260510063055 | 49 | 319 | 0.0 | 1.0 | 0.00 | 0.19 | 0.00 | 94 | 1010.2 |
| 20260510062554 | 49 | 319 | 0.0 | 1.0 | 0.00 | 0.19 | 0.00 | 94 | 1010.3 |
| 20260510062054 | 49 | 0 | 0.0 | 2.0 | 0.00 | 0.19 | 0.00 | 94 | 1010.3 |
| 20260510061602 | 49 | 0 | 0.0 | 2.0 | 0.00 | 0.19 | 0.00 | 94 | 1010.4 |
| 20260510061057 | 49 | 0 | 0.0 | 2.0 | 0.00 | 0.19 | 0.00 | 94 | 1010.3 |
| 20260510060554 | 49 | 0 | 0.0 | 2.0 | 0.00 | 0.19 | 0.00 | 94 | 1010.3 |
| 20260510060054 | 49 | 0 | 0.0 | 2.0 | 0.00 | 0.19 | 0.00 | 94 | 1010.4 |
| 20260510055554 | 49 | 319 | 1.0 | 2.0 | 0.00 | 0.19 | 0.00 | 94 | 1010.6 |
| 20260510055054 | 49 | 319 | 0.0 | 2.0 | 0.00 | 0.19 | 0.00 | 93 | 1010.5 |
| 20260510054601 | 49 | 319 | 1.0 | 3.0 | 0.00 | 0.19 | 0.00 | 93 | 1010.4 |
| 20260510054050 | 49 | 321 | 1.0 | 3.0 | 0.00 | 0.19 | 0.00 | 93 | 1010.5 |
| 20260510053551 | 49 | 316 | 1.0 | 3.0 | 0.00 | 0.19 | 0.00 | 93 | 1010.4 |
| 20260510053054 | 49 | 317 | 1.0 | 3.0 | 0.00 | 0.19 | 0.00 | 93 | 1010.3 |
| 20260510052550 | 49 | 318 | 1.0 | 3.0 | 0.00 | 0.19 | 0.00 | 93 | 1010.1 |
| 20260510052050 | 49 | 308 | 1.0 | 2.0 | 0.00 | 0.19 | 0.00 | 93 | 1010.1 |
| 20260510051551 | 49 | 201 | 0.0 | 2.0 | 0.00 | 0.19 | 0.00 | 93 | 1010.0 |
| 20260510051055 | 49 | 0 | 0.0 | 1.0 | 0.00 | 0.19 | 0.00 | 93 | 1010.1 |
| 20260510050550 | 50 | 0 | 0.0 | 1.0 | 0.00 | 0.19 | 0.00 | 93 | 1010.0 |
| 20260510050054 | 50 | 0 | 0.0 | 1.0 | 0.00 | 0.19 | 0.00 | 93 | 1010.1 |
| 20260510045550 | 50 | 0 | 0.0 | 1.0 | 0.00 | 0.19 | 0.00 | 93 | 1010.1 |
| 20260510045050 | 50 | 0 | 0.0 | 1.0 | 0.00 | 0.19 | 0.00 | 93 | 1010.1 |
| 20260510044553 | 50 | 0 | 0.0 | 1.0 | 0.00 | 0.19 | 0.00 | 93 | 1010.1 |
| 20260510044050 | 50 | 0 | 0.0 | 1.0 | 0.00 | 0.19 | 0.00 | 93 | 1010.1 |
| 20260510043550 | 50 | 0 | 0.0 | 1.0 | 0.00 | 0.19 | 0.00 | 93 | 1010.1 |
| 20260510043054 | 50 | 0 | 0.0 | 2.0 | 0.00 | 0.19 | 0.00 | 93 | 1010.1 |
| 20260510042553 | 50 | 0 | 0.0 | 2.0 | 0.00 | 0.19 | 0.00 | 93 | 1010.2 |
| 20260510042051 | 50 | 0 | 0.0 | 2.0 | 0.00 | 0.19 | 0.00 | 93 | 1010.3 |
| 20260510041629 | 50 | 0 | 0.0 | 2.0 | 0.00 | 0.19 | 0.00 | 93 | 1010.2 |
| 20260510041051 | 50 | 0 | 0.0 | 2.0 | 0.00 | 0.19 | 0.00 | 93 | 1010.2 |
| 20260510040553 | 50 | 0 | 0.0 | 2.0 | 0.00 | 0.19 | 0.00 | 93 | 1010.1 |
| 20260510040053 | 50 | 201 | 0.0 | 2.0 | 0.00 | 0.19 | 0.00 | 93 | 1010.3 |
| 20260510035550 | 50 | 201 | 0.0 | 2.0 | 0.00 | 0.19 | 0.19 | 93 | 1010.3 |
| 20260510035050 | 50 | 0 | 0.0 | 2.0 | 0.00 | 0.19 | 0.19 | 93 | 1010.2 |
| 20260510034558 | 50 | 201 | 1.0 | 2.0 | 0.00 | 0.19 | 0.19 | 93 | 1010.2 |
| 20260510034055 | 51 | 0 | 0.0 | 3.0 | 0.00 | 0.19 | 0.19 | 93 | 1010.1 |
| 20260510033550 | 51 | 0 | 1.0 | 3.0 | 0.00 | 0.19 | 0.19 | 93 | 1010.1 |
| 20260510033106 | 51 | 0 | 0.0 | 1.0 | 0.00 | 0.19 | 0.19 | 93 | 1010.1 |
| 20260510032550 | 51 | 0 | 0.0 | 2.0 | 0.00 | 0.19 | 0.19 | 93 | 1010.0 |
| 20260510032051 | 51 | 0 | 0.0 | 2.0 | 0.00 | 0.19 | 0.19 | 93 | 1009.9 |
| 20260510031555 | 51 | 201 | 0.0 | 2.0 | 0.00 | 0.19 | 0.19 | 93 | 1009.9 |
| 20260510031053 | 51 | 201 | 0.0 | 2.0 | 0.00 | 0.19 | 0.19 | 93 | 1010.0 |
| 20260510030552 | 51 | 0 | 0.0 | 3.0 | 0.00 | 0.19 | 0.19 | 93 | 1010.0 |
| 20260510030054 | 51 | 201 | 1.0 | 5.0 | 0.00 | 0.19 | 0.19 | 93 | 1010.1 |
| 20260510025551 | 51 | 201 | 2.0 | 5.0 | 0.00 | 0.19 | 0.19 | 93 | 1010.0 |
| 20260510025054 | 51 | 195 | 2.0 | 5.0 | 0.00 | 0.19 | 0.19 | 93 | 1010.1 |
| 20260510024608 | 51 | 170 | 2.0 | 6.0 | 0.00 | 0.19 | 0.19 | 93 | 1010.0 |
| 20260510024053 | 52 | 170 | 3.0 | 6.0 | 0.00 | 0.19 | 0.19 | 93 | 1010.0 |
| 20260510023550 | 52 | 171 | 3.0 | 8.0 | 0.00 | 0.19 | 0.19 | 93 | 1009.9 |
| 20260510023057 | 52 | 164 | 3.0 | 8.0 | 0.00 | 0.19 | 0.19 | 93 | 1009.9 |
| 20260510022551 | 52 | 164 | 4.0 | 7.0 | 0.00 | 0.19 | 0.19 | 93 | 1009.9 |
| 20260510022053 | 52 | 167 | 3.0 | 6.0 | 0.00 | 0.19 | 0.19 | 92 | 1010.0 |
| 20260510021555 | 52 | 158 | 3.0 | 5.0 | 0.00 | 0.19 | 0.19 | 92 | 1009.9 |
| 20260510021053 | 52 | 132 | 1.0 | 5.0 | 0.00 | 0.19 | 0.19 | 92 | 1009.8 |
| 20260510020554 | 52 | 175 | 1.0 | 5.0 | 0.00 | 0.19 | 0.19 | 92 | 1009.9 |
| 20260510020056 | 52 | 143 | 2.0 | 5.0 | 0.00 | 0.19 | 0.19 | 92 | 1009.8 |
| 20260510015555 | 52 | 163 | 2.0 | 4.0 | 0.00 | 0.19 | 0.19 | 92 | 1009.9 |
| 20260510015054 | 52 | 155 | 2.0 | 4.0 | 0.00 | 0.19 | 0.19 | 92 | 1009.9 |
| 20260510014614 | 52 | 148 | 3.0 | 5.0 | 0.00 | 0.19 | 0.19 | 92 | 1009.9 |
| 20260510014054 | 52 | 148 | 2.0 | 5.0 | 0.00 | 0.19 | 0.19 | 92 | 1009.8 |
| 20260510013554 | 52 | 153 | 3.0 | 6.0 | 0.00 | 0.19 | 0.19 | 92 | 1009.8 |
| 20260510013103 | 52 | 156 | 3.0 | 6.0 | 0.00 | 0.19 | 0.19 | 91 | 1009.9 |
| 20260510012555 | 52 | 151 | 4.0 | 5.0 | 0.00 | 0.19 | 0.19 | 91 | 1009.7 |
| 20260510012054 | 52 | 162 | 3.0 | 6.0 | 0.00 | 0.19 | 0.19 | 91 | 1009.7 |
| 20260510011556 | 53 | 151 | 3.0 | 6.0 | 0.00 | 0.19 | 0.19 | 91 | 1009.6 |
| 20260510011055 | 53 | 146 | 3.0 | 6.0 | 0.00 | 0.19 | 0.19 | 90 | 1009.6 |
| 20260510010553 | 53 | 143 | 3.0 | 4.0 | 0.00 | 0.19 | 0.19 | 90 | 1009.6 |
| 20260510010053 | 53 | 151 | 2.0 | 4.0 | 0.00 | 0.19 | 0.19 | 90 | 1009.5 |
| 20260510005555 | 53 | 137 | 2.0 | 4.0 | 0.00 | 0.19 | 0.19 | 89 | 1009.4 |
| 20260510005054 | 53 | 114 | 2.0 | 4.0 | 0.00 | 0.19 | 0.19 | 89 | 1009.3 |
| 20260510004600 | 53 | 132 | 1.0 | 3.0 | 0.00 | 0.19 | 0.19 | 89 | 1009.4 |
| 20260510004054 | 53 | 132 | 2.0 | 4.0 | 0.00 | 0.19 | 0.19 | 89 | 1009.4 |
| 20260510003554 | 54 | 132 | 2.0 | 6.0 | 0.00 | 0.19 | 0.19 | 88 | 1009.3 |
| 20260510003053 | 54 | 133 | 2.0 | 6.0 | 0.00 | 0.19 | 0.19 | 88 | 1009.2 |
| 20260510002558 | 54 | 135 | 2.0 | 4.0 | 0.00 | 0.19 | 0.19 | 87 | 1009.1 |
| 20260510002054 | 54 | 118 | 1.0 | 3.0 | 0.00 | 0.19 | 0.19 | 86 | 1009.1 |
| 20260510001554 | 54 | 165 | 1.0 | 3.0 | 0.00 | 0.19 | 0.19 | 86 | 1009.1 |
| 20260510001054 | 54 | 165 | 0.0 | 2.0 | 0.00 | 0.19 | 0.19 | 86 | 1009.0 |
| 20260510000556 | 54 | 0 | 1.0 | 3.0 | 0.00 | 0.19 | 0.19 | 86 | 1008.9 |
| 20260510000054 | 54 | 165 | 1.0 | 4.0 | 0.00 | 0.19 | 0.19 | 86 | 1008.9 |
| 20260509235557 | 55 | 165 | 2.0 | 4.0 | 0.00 | 0.19 | 0.19 | 86 | 1008.9 |
| 20260509235057 | 55 | 165 | 2.0 | 4.0 | 0.00 | 0.19 | 0.19 | 86 | 1008.9 |
| 20260509234554 | 55 | 165 | 1.0 | 4.0 | 0.00 | 0.19 | 0.19 | 86 | 1008.8 |
| 20260509234054 | 55 | 165 | 2.0 | 4.0 | 0.00 | 0.19 | 0.19 | 85 | 1008.9 |
| 20260509233553 | 55 | 165 | 1.0 | 3.0 | 0.00 | 0.19 | 0.19 | 85 | 1008.9 |
| 20260509233055 | 55 | 165 | 1.0 | 5.0 | 0.00 | 0.19 | 0.19 | 85 | 1008.8 |
| 20260509232553 | 55 | 165 | 2.0 | 6.0 | 0.00 | 0.19 | 0.19 | 85 | 1008.8 |
| 20260509232055 | 55 | 170 | 3.0 | 6.0 | 0.00 | 0.19 | 0.19 | 85 | 1008.6 |
| 20260509231606 | 55 | 166 | 2.0 | 5.0 | 0.00 | 0.19 | 0.19 | 85 | 1008.7 |
| 20260509231053 | 55 | 195 | 2.0 | 5.0 | 0.00 | 0.19 | 0.19 | 85 | 1008.7 |
| 20260509230557 | 55 | 224 | 0.0 | 7.0 | 0.00 | 0.19 | 0.19 | 85 | 1008.6 |
| 20260509230054 | 55 | 193 | 3.0 | 7.0 | 0.00 | 0.19 | 0.19 | 85 | 1008.7 |
| 20260509225555 | 55 | 179 | 2.0 | 7.0 | 0.00 | 0.19 | 0.19 | 85 | 1008.6 |
| 20260509225054 | 55 | 212 | 2.0 | 7.0 | 0.00 | 0.19 | 0.19 | 85 | 1008.7 |
| 20260509224555 | 55 | 171 | 4.0 | 7.0 | 0.00 | 0.19 | 0.19 | 85 | 1008.6 |
| 20260509224051 | 55 | 156 | 1.0 | 5.0 | 0.00 | 0.19 | 0.19 | 86 | 1008.6 |
| 20260509223554 | 55 | 215 | 2.0 | 7.0 | 0.00 | 0.19 | 0.19 | 85 | 1008.7 |
| 20260509223056 | 55 | 166 | 3.0 | 8.0 | 0.00 | 0.19 | 0.19 | 85 | 1008.7 |
| 20260509222557 | 55 | 210 | 4.0 | 8.0 | 0.00 | 0.19 | 0.19 | 85 | 1008.7 |
| 20260509222054 | 55 | 173 | 4.0 | 7.0 | 0.00 | 0.19 | 0.19 | 85 | 1008.7 |
| 20260509221557 | 55 | 171 | 2.0 | 7.0 | 0.00 | 0.19 | 0.19 | 86 | 1008.8 |
| 20260509221055 | 55 | 218 | 4.0 | 7.0 | 0.00 | 0.19 | 0.19 | 85 | 1008.9 |
| 20260509220555 | 55 | 207 | 4.0 | 7.0 | 0.00 | 0.19 | 0.19 | 85 | 1008.8 |
| 20260509220058 | 55 | 216 | 3.0 | 6.0 | 0.00 | 0.19 | 0.19 | 85 | 1008.8 |
| 20260509215556 | 55 | 194 | 2.0 | 6.0 | 0.00 | 0.19 | 0.19 | 85 | 1008.8 |
| 20260509215054 | 55 | 205 | 1.0 | 7.0 | 0.00 | 0.19 | 0.19 | 85 | 1008.9 |
| 20260509214553 | 55 | 0 | 1.0 | 8.0 | 0.00 | 0.19 | 0.19 | 85 | 1008.8 |
| 20260509214053 | 55 | 215 | 1.0 | 8.0 | 0.00 | 0.19 | 0.19 | 86 | 1008.7 |
| 20260509213554 | 55 | 168 | 3.0 | 9.0 | 0.00 | 0.19 | 0.19 | 86 | 1008.6 |
| 20260509213053 | 55 | 160 | 3.0 | 9.0 | 0.00 | 0.19 | 0.19 | 87 | 1008.7 |
| 20260509212554 | 55 | 170 | 4.0 | 8.0 | 0.00 | 0.19 | 0.19 | 86 | 1008.8 |
| 20260509212055 | 55 | 186 | 3.0 | 7.0 | 0.00 | 0.19 | 0.19 | 87 | 1008.9 |
| 20260509211600 | 54 | 172 | 3.0 | 7.0 | 0.00 | 0.19 | 0.19 | 87 | 1008.8 |
| 20260509211054 | 54 | 218 | 1.0 | 6.0 | 0.00 | 0.19 | 0.19 | 88 | 1009.0 |
| 20260509210555 | 55 | 204 | 2.0 | 5.0 | 0.00 | 0.19 | 0.19 | 88 | 1009.2 |
| 20260509210106 | 55 | 0 | 0.0 | 2.0 | 0.00 | 0.19 | 0.19 | 89 | 1009.2 |
| 20260509205553 | 55 | 0 | 0.0 | 3.0 | 0.00 | 0.19 | 0.19 | 89 | 1009.1 |
| 20260509205054 | 54 | 0 | 1.0 | 3.0 | 0.00 | 0.19 | 0.19 | 89 | 1009.2 |
| 20260509204554 | 55 | 183 | 1.0 | 3.0 | 0.00 | 0.19 | 0.19 | 89 | 1009.4 |
| 20260509204054 | 55 | 237 | 0.0 | 4.0 | 0.00 | 0.19 | 0.19 | 89 | 1009.4 |
| 20260509203556 | 55 | 248 | 1.0 | 4.0 | 0.01 | 0.19 | 0.19 | 90 | 1009.3 |
| 20260509203053 | 55 | 274 | 0.0 | 3.0 | 0.01 | 0.19 | 0.19 | 90 | 1009.3 |
| 20260509202553 | 54 | 292 | 0.0 | 3.0 | 0.01 | 0.19 | 0.19 | 90 | 1009.3 |
| 20260509202052 | 54 | 214 | 0.0 | 3.0 | 0.01 | 0.19 | 0.19 | 90 | 1009.3 |
| 20260509201553 | 54 | 290 | 0.0 | 4.0 | 0.01 | 0.19 | 0.19 | 90 | 1009.2 |
| 20260509201052 | 54 | 0 | 0.0 | 4.0 | 0.02 | 0.19 | 0.19 | 90 | 1009.3 |
| 20260509200553 | 53 | 0 | 2.0 | 4.0 | 0.03 | 0.19 | 0.19 | 90 | 1009.2 |
| 20260509200055 | 53 | 163 | 2.0 | 4.0 | 0.03 | 0.19 | 0.19 | 90 | 1009.2 |
| 20260509195554 | 53 | 168 | 0.0 | 6.0 | 0.03 | 0.19 | 0.19 | 91 | 1009.3 |
| 20260509195053 | 53 | 0 | 2.0 | 7.0 | 0.04 | 0.19 | 0.19 | 91 | 1009.5 |
| 20260509194555 | 53 | 220 | 3.0 | 7.0 | 0.05 | 0.19 | 0.19 | 91 | 1009.5 |
| 20260509194052 | 53 | 158 | 4.0 | 7.0 | 0.05 | 0.19 | 0.19 | 90 | 1009.6 |
| 20260509193552 | 53 | 193 | 1.0 | 6.0 | 0.05 | 0.18 | 0.18 | 90 | 1009.8 |
| 20260509193054 | 53 | 170 | 3.0 | 6.0 | 0.05 | 0.18 | 0.18 | 90 | 1009.9 |
| 20260509192555 | 53 | 157 | 2.0 | 4.0 | 0.05 | 0.18 | 0.18 | 90 | 1009.8 |
| 20260509192052 | 53 | 174 | 1.0 | 3.0 | 0.05 | 0.18 | 0.18 | 89 | 1010.1 |
| 20260509191557 | 53 | 0 | 0.0 | 4.0 | 0.06 | 0.18 | 0.18 | 89 | 1010.3 |
| 20260509191053 | 53 | 263 | 1.0 | 5.0 | 0.05 | 0.17 | 0.17 | 89 | 1010.3 |
| 20260509190551 | 53 | 195 | 1.0 | 5.0 | 0.04 | 0.16 | 0.16 | 89 | 1010.6 |
| 20260509185552 | 53 | 0 | 1.0 | 9.0 | 0.04 | 0.16 | 0.16 | 89 | 1010.3 |
| 20260509185052 | 53 | 212 | 3.0 | 9.0 | 0.04 | 0.15 | 0.15 | 88 | 1010.5 |
| 20260509184601 | 53 | 185 | 2.0 | 6.0 | 0.03 | 0.14 | 0.14 | 88 | 1010.6 |
| 20260509184051 | 54 | 206 | 1.0 | 3.0 | 0.04 | 0.14 | 0.14 | 88 | 1010.5 |
| 20260509183552 | 54 | 0 | 0.0 | 3.0 | 0.03 | 0.13 | 0.13 | 88 | 1010.4 |
| 20260509183059 | 54 | 0 | 0.0 | 3.0 | 0.04 | 0.13 | 0.13 | 88 | 1010.6 |
| 20260509182552 | 54 | 236 | 1.0 | 3.0 | 0.05 | 0.13 | 0.13 | 88 | 1010.5 |
| 20260509182051 | 54 | 256 | 0.0 | 2.0 | 0.07 | 0.13 | 0.13 | 88 | 1010.6 |
| 20260509181556 | 54 | 0 | 0.0 | 4.0 | 0.07 | 0.12 | 0.12 | 88 | 1010.4 |
| 20260509181051 | 54 | 277 | 0.0 | 4.0 | 0.08 | 0.12 | 0.12 | 88 | 1010.5 |
| 20260509180553 | 54 | 0 | 0.0 | 3.0 | 0.09 | 0.12 | 0.12 | 88 | 1010.5 |
| 20260509180058 | 54 | 0 | 0.0 | 3.0 | 0.10 | 0.12 | 0.12 | 88 | 1010.4 |
| 20260509175552 | 54 | 0 | 0.0 | 3.0 | 0.10 | 0.12 | 0.12 | 88 | 1010.4 |
| 20260509175050 | 54 | 0 | 0.0 | 4.0 | 0.10 | 0.11 | 0.11 | 88 | 1010.4 |
| 20260509174556 | 54 | 258 | 0.0 | 4.0 | 0.10 | 0.11 | 0.11 | 87 | 1010.5 |
| 20260509174051 | 54 | 251 | 0.0 | 4.0 | 0.09 | 0.10 | 0.10 | 87 | 1010.5 |
| 20260509173551 | 54 | 281 | 1.0 | 6.0 | 0.10 | 0.10 | 0.10 | 87 | 1010.4 |
| 20260509173119 | 54 | 260 | 2.0 | 6.0 | 0.09 | 0.09 | 0.09 | 86 | 1010.3 |
| 20260509172552 | 55 | 257 | 1.0 | 5.0 | 0.08 | 0.08 | 0.08 | 87 | 1010.2 |
| 20260509172051 | 55 | 222 | 0.0 | 6.0 | 0.06 | 0.06 | 0.06 | 86 | 1010.4 |
| 20260509171602 | 55 | 0 | 2.0 | 6.0 | 0.05 | 0.05 | 0.05 | 86 | 1010.6 |
| 20260509171051 | 55 | 0 | 1.0 | 5.0 | 0.04 | 0.04 | 0.04 | 86 | 1010.6 |
| 20260509170553 | 55 | 217 | 2.0 | 6.0 | 0.03 | 0.03 | 0.03 | 86 | 1010.7 |
| 20260509170100 | 56 | 279 | 1.0 | 6.0 | 0.02 | 0.02 | 0.02 | 86 | 1010.8 |
| 20260509165552 | 56 | 214 | 1.0 | 7.0 | 0.02 | 0.02 | 0.02 | 85 | 1010.6 |
| 20260509165053 | 56 | 246 | 1.0 | 7.0 | 0.01 | 0.01 | 0.01 | 84 | 1010.6 |
| 20260509164601 | 56 | 196 | 2.0 | 7.0 | 0.01 | 0.01 | 0.01 | 84 | 1010.7 |
| 20260509164053 | 56 | 210 | 2.0 | 11.0 | 0.01 | 0.01 | 0.01 | 83 | 1010.6 |
| 20260509163552 | 56 | 202 | 5.0 | 12.0 | 0.00 | 0.00 | 0.00 | 82 | 1010.6 |
| 20260509163058 | 56 | 187 | 5.0 | 12.0 | 0.00 | 0.00 | 0.00 | 82 | 1010.7 |
| 20260509162552 | 56 | 225 | 5.0 | 10.0 | 0.00 | 0.00 | 0.00 | 81 | 1010.6 |
| 20260509162055 | 56 | 204 | 5.0 | 10.0 | 0.00 | 0.00 | 0.00 | 81 | 1010.6 |
| 20260509161555 | 56 | 195 | 4.0 | 11.0 | 0.00 | 0.00 | 0.00 | 81 | 1010.6 |
| 20260509161051 | 56 | 191 | 5.0 | 11.0 | 0.00 | 0.00 | 0.00 | 81 | 1010.7 |
| 20260509160552 | 56 | 202 | 3.0 | 8.0 | 0.00 | 0.00 | 0.00 | 81 | 1010.8 |
| 20260509160054 | 56 | 171 | 4.0 | 8.0 | 0.00 | 0.00 | 0.00 | 81 | 1010.9 |
| 20260509155551 | 56 | 208 | 1.0 | 9.0 | 0.00 | 0.00 | 0.00 | 82 | 1010.9 |
| 20260509155052 | 55 | 210 | 4.0 | 9.0 | 0.00 | 0.00 | 0.00 | 82 | 1010.9 |
| 20260509154555 | 55 | 208 | 3.0 | 8.0 | 0.00 | 0.00 | 0.00 | 82 | 1010.9 |
| 20260509154053 | 55 | 218 | 4.0 | 8.0 | 0.00 | 0.00 | 0.00 | 82 | 1011.0 |
| 20260509153556 | 55 | 207 | 3.0 | 8.0 | 0.00 | 0.00 | 0.00 | 82 | 1011.0 |
| 20260509153056 | 55 | 202 | 4.0 | 11.0 | 0.00 | 0.00 | 0.00 | 82 | 1011.1 |
| 20260509152552 | 55 | 187 | 4.0 | 11.0 | 0.00 | 0.00 | 0.00 | 82 | 1011.0 |
| 20260509152052 | 55 | 191 | 4.0 | 10.0 | 0.00 | 0.00 | 0.00 | 82 | 1011.0 |
| 20260509151616 | 55 | 185 | 4.0 | 9.0 | 0.00 | 0.00 | 0.00 | 82 | 1010.9 |
| 20260509151052 | 55 | 189 | 6.0 | 9.0 | 0.00 | 0.00 | 0.00 | 82 | 1010.8 |
| 20260509150552 | 54 | 167 | 4.0 | 10.0 | 0.00 | 0.00 | 0.00 | 81 | 1010.6 |
| 20260509150055 | 54 | 156 | 5.0 | 10.0 | 0.00 | 0.00 | 0.00 | 81 | 1010.7 |
| 20260509145553 | 54 | 168 | 7.0 | 10.0 | 0.00 | 0.00 | 0.00 | 81 | 1010.9 |
| 20260509145052 | 55 | 179 | 5.0 | 9.0 | 0.00 | 0.00 | 0.00 | 80 | 1011.1 |
| 20260509144555 | 54 | 182 | 6.0 | 9.0 | 0.00 | 0.00 | 0.00 | 81 | 1011.0 |
| 20260509144054 | 55 | 168 | 3.0 | 8.0 | 0.00 | 0.00 | 0.00 | 81 | 1011.0 |
| 20260509143553 | 54 | 203 | 4.0 | 8.0 | 0.00 | 0.00 | 0.00 | 82 | 1011.0 |
| 20260509143103 | 54 | 187 | 4.0 | 8.0 | 0.00 | 0.00 | 0.00 | 82 | 1011.0 |
| 20260509142553 | 54 | 171 | 2.0 | 8.0 | 0.00 | 0.00 | 0.00 | 82 | 1011.1 |
| 20260509142052 | 54 | 175 | 3.0 | 8.0 | 0.00 | 0.00 | 0.00 | 81 | 1011.1 |
| 20260509141558 | 54 | 191 | 4.0 | 8.0 | 0.00 | 0.00 | 0.00 | 81 | 1011.0 |
| 20260509141052 | 54 | 168 | 3.0 | 7.0 | 0.00 | 0.00 | 0.00 | 82 | 1010.9 |
| 20260509140551 | 54 | 209 | 2.0 | 5.0 | 0.00 | 0.00 | 0.00 | 80 | 1010.9 |
| 20260509140056 | 54 | 173 | 2.0 | 7.0 | 0.00 | 0.00 | 0.00 | 81 | 1010.8 |
| 20260509135554 | 54 | 200 | 3.0 | 7.0 | 0.00 | 0.00 | 0.00 | 80 | 1010.7 |
| 20260509135056 | 54 | 157 | 2.0 | 5.0 | 0.00 | 0.00 | 0.00 | 80 | 1010.8 |
| 20260509134555 | 54 | 208 | 2.0 | 8.0 | 0.00 | 0.00 | 0.00 | 80 | 1010.6 |
| 20260509134057 | 54 | 221 | 3.0 | 8.0 | 0.00 | 0.00 | 0.00 | 80 | 1010.8 |
| 20260509133554 | 54 | 135 | 3.0 | 8.0 | 0.00 | 0.00 | 0.00 | 80 | 1010.6 |
| 20260509133104 | 54 | 147 | 4.0 | 8.0 | 0.00 | 0.00 | 0.00 | 80 | 1010.6 |
| 20260509132551 | 53 | 154 | 5.0 | 8.0 | 0.00 | 0.00 | 0.00 | 79 | 1010.6 |
| 20260509132051 | 53 | 118 | 4.0 | 7.0 | 0.00 | 0.00 | 0.00 | 79 | 1010.6 |
| 20260509131603 | 53 | 140 | 3.0 | 7.0 | 0.00 | 0.00 | 0.00 | 80 | 1010.8 |
| 20260509131054 | 53 | 137 | 2.0 | 5.0 | 0.00 | 0.00 | 0.00 | 79 | 1010.9 |
| 20260509130554 | 53 | 100 | 1.0 | 5.0 | 0.00 | 0.00 | 0.00 | 79 | 1010.7 |
| 20260509130125 | 53 | 89 | 2.0 | 4.0 | 0.00 | 0.00 | 0.00 | 79 | 1010.6 |
| 20260509125554 | 53 | 110 | 2.0 | 4.0 | 0.00 | 0.00 | 0.00 | 78 | 1010.8 |
| 20260509125053 | 53 | 121 | 1.0 | 4.0 | 0.00 | 0.00 | 0.00 | 78 | 1010.9 |
| 20260509124552 | 53 | 121 | 1.0 | 3.0 | 0.00 | 0.00 | 0.00 | 78 | 1010.8 |
| 20260509124054 | 53 | 119 | 1.0 | 3.0 | 0.00 | 0.00 | 0.00 | 78 | 1010.8 |
| 20260509123557 | 52 | 119 | 0.0 | 3.0 | 0.00 | 0.00 | 0.00 | 78 | 1010.8 |
| 20260509123119 | 52 | 119 | 0.0 | 3.0 | 0.00 | 0.00 | 0.00 | 78 | 1010.9 |
| 20260509122556 | 52 | 170 | 1.0 | 3.0 | 0.00 | 0.00 | 0.00 | 78 | 1010.9 |
| 20260509122055 | 52 | 0 | 0.0 | 2.0 | 0.00 | 0.00 | 0.00 | 78 | 1010.9 |
| 20260509121554 | 52 | 0 | 0.0 | 2.0 | 0.00 | 0.00 | 0.00 | 79 | 1010.9 |
| 20260509121053 | 52 | 0 | 0.0 | 3.0 | 0.00 | 0.00 | 0.00 | 78 | 1010.9 |
| 20260509120554 | 51 | 112 | 0.0 | 4.0 | 0.00 | 0.00 | 0.00 | 78 | 1010.9 |
| 20260509120054 | 51 | 112 | 1.0 | 4.0 | 0.00 | 0.00 | 0.00 | 78 | 1010.8 |
| 20260509115554 | 51 | 101 | 2.0 | 4.0 | 0.00 | 0.00 | 0.00 | 78 | 1010.8 |
| 20260509115054 | 51 | 132 | 1.0 | 6.0 | 0.00 | 0.00 | 0.00 | 78 | 1010.9 |
| 20260509114625 | 51 | 129 | 2.0 | 6.0 | 0.00 | 0.00 | 0.00 | 79 | 1010.7 |
| 20260509114054 | 51 | 118 | 1.0 | 6.0 | 0.00 | 0.00 | 0.00 | 78 | 1010.7 |
| 20260509113553 | 51 | 101 | 3.0 | 6.0 | 0.00 | 0.00 | 0.00 | 78 | 1010.6 |
| 20260509113112 | 50 | 156 | 2.0 | 4.0 | 0.00 | 0.00 | 0.00 | 79 | 1010.6 |
| 20260509112555 | 50 | 119 | 0.0 | 2.0 | 0.00 | 0.00 | 0.00 | 80 | 1010.6 |
| 20260509112053 | 50 | 0 | 0.0 | 2.0 | 0.00 | 0.00 | 0.00 | 80 | 1010.7 |
| 20260509111554 | 50 | 0 | 0.0 | 4.0 | 0.00 | 0.00 | 0.00 | 80 | 1010.6 |
| 20260509111055 | 50 | 0 | 1.0 | 4.0 | 0.00 | 0.00 | 0.00 | 80 | 1010.6 |
| 20260509110554 | 49 | 108 | 1.0 | 5.0 | 0.00 | 0.00 | 0.00 | 80 | 1010.6 |
| 20260509110101 | 49 | 46 | 2.0 | 5.0 | 0.00 | 0.00 | 0.00 | 80 | 1010.3 |
| 20260509105552 | 49 | 25 | 2.0 | 6.0 | 0.00 | 0.00 | 0.00 | 80 | 1010.3 |
| 20260509105052 | 49 | 41 | 2.0 | 6.0 | 0.00 | 0.00 | 0.00 | 80 | 1010.4 |
| 20260509104554 | 49 | 353 | 2.0 | 5.0 | 0.00 | 0.00 | 0.00 | 79 | 1010.4 |
| 20260509104052 | 49 | 33 | 3.0 | 5.0 | 0.00 | 0.00 | 0.00 | 79 | 1010.3 |